User: anonymous   Login
Location: Meetinghouse Hill
(42.7686°N, 71.7752°W)
Time: 04:29:58
(UTC-04:00)
Language:

Iridium 34 - Orbit

View from above orbital plane
View from above orbital plane
View from above satellite
View from above satellite

Ground track
Ground track

The orbit data is extracted from the following two-line orbital elements,

1 24969U 97056E   15141.51250656  .00000081  00000-0  21990-4 0  9993
2 24969 086.3954 275.4771 0002235 094.2889 265.8562 14.34217240923930
Epoch (UTC): 21 May 2015 12:18:00
Eccentricity: 0.0002235
inclination: 86.3954°
perigee height: 776 km
apogee height: 779 km
right ascension of ascending node: 275.4771°
argument of perigee: 94.2889°
revolutions per day: 14.34217240
mean anomaly at epoch: 265.8562°
orbit number at epoch: 92393

The dashed part of the orbit path shows where the satellite is in the earth's shadow,  

DLR